METEOR 2-5 DEB, 35256

Orbit data source: Space-Track

METEOR 2-5 DEB, 35256 is space debris in LEO originally from a launch on Wed, 31 Oct 1979 UTC launched from the Plesetsk Missile And Space Complex (PKMTR). Debris objects in space refer to the collection of defunct objects orbiting the Earth. Examples of debris include non-operational satellites, rocket bodies, and fragments generated from explosions, collisions, or faulty payload assembly.

Loading next visibility...
Identifier
35256, 1979-095X
Orbit
LEO
Country
Flag of CISCIS
Related business
Manufacturer
Unknown
Mission
Spacecraft
Bus & Motor
Unknown
Mass
Unknown
Launch date (UTC)
1979-10-31 (47 years ago)
Launch vehicle
Unknown
Launch site
Plesetsk Missile And Space Complex (PKMTR)
Object type
Payload
Rocket body
Debris
Shape & HBR
Unknown shape, 0.1 m
Radar Cross Section
Small (<0.1 m²)

Expand to show TLE details & history
Last TLE update: 5 days ago

TLE from 5 days ago
0 METEOR 2-5 DEB
1 35256U 79095X   26168.51941278  .00004050  00000-0  11417-2 0  9996
2 35256  81.1850  98.6552 0006894 214.3785 145.6960 14.45641226648440
Epoch: 2026-06-17T12:27Z
TLE epoch observation values (Epoch: 2026-06-17T12:27:57.264Z)
Latitude
-0.00001°
Longitude
5.89067°
Altitude
746.922 km
Speed
7.479 km/s
True Right ascension
06h 34m 37s
True Declination
0° 00' 00"
Sunlit
Object was in daylight at epoch
Visualization orbit readout
Latitude
Unknown
Longitude
Unknown
Altitude
Unknown
Speed
Unknown
Apparent Right ascension
Unknown
Apparent Declination
Unknown
Sunlit
N/A
Visualization observer readout
Local Sidereal Time
07:08:12
Azimuth
Unknown
Elevation
Unknown
Doppler factor
Unknown
Orbital elements
Apogee altitude
741.955 km
Perigee altitude
732.145 km
Semi-major axis
7,115.187 km
Eccentricity
0.00069
Inclination
81.185°
RAAN
98.6552°
Arg. of periapsis
214.3785°
True anomaly
145.74049°
Mean anomaly
145.696°
Eccentric anomaly
145.71825°
Mean motion
3.61629 °/min
Orbital period
99.55 mins
BSTAR
0.0011417
Loading maneuver chart data...
Computing Atmospheric mass density...

Documentation

Showing up to 5 results
|